TimeEDT,TemperatureF,Dew PointF,Humidity,Sea Level PressureIn,VisibilityMPH,Wind Direction,Wind SpeedMPH,Gust SpeedMPH,PrecipitationIn,Events,Conditions,WindDirDegrees,DateUTC
12:53 AM,64.0,57.0,78,30.29,10.0,Calm,Calm,-,N/A,,Clear,0,2013-08-18 04:53:00
1:53 AM,63.0,57.9,84,30.28,10.0,Calm,Calm,-,N/A,,Clear,0,2013-08-18 05:53:00
2:53 AM,62.1,57.9,86,30.28,10.0,Calm,Calm,-,N/A,,Clear,0,2013-08-18 06:53:00
3:53 AM,62.1,57.9,86,30.29,10.0,NNW,3.5,-,N/A,,Clear,330,2013-08-18 07:53:00
4:53 AM,61.0,57.9,90,30.29,10.0,Calm,Calm,-,N/A,,Clear,0,2013-08-18 08:53:00
5:53 AM,60.1,57.0,90,30.29,10.0,Calm,Calm,-,N/A,,Clear,0,2013-08-18 09:53:00
6:53 AM,61.0,57.0,87,30.29,10.0,NNW,3.5,-,N/A,,Clear,340,2013-08-18 10:53:00
7:53 AM,64.0,57.0,78,30.29,10.0,North,3.5,-,N/A,,Clear,350,2013-08-18 11:53:00
8:53 AM,68.0,57.9,70,30.29,10.0,Calm,Calm,-,N/A,,Clear,0,2013-08-18 12:53:00
9:53 AM,72.0,57.9,61,30.28,10.0,Calm,Calm,-,N/A,,Clear,0,2013-08-18 13:53:00
10:53 AM,73.9,60.1,62,30.28,10.0,SSE,3.5,-,N/A,,Partly Cloudy,150,2013-08-18 14:53:00
11:53 AM,75.0,60.1,60,30.27,10.0,Calm,Calm,-,N/A,,Clear,0,2013-08-18 15:53:00
12:53 PM,80.1,57.0,45,30.24,10.0,Variable,5.8,-,N/A,,Clear,0,2013-08-18 16:53:00
1:53 PM,79.0,55.0,44,30.22,10.0,SSW,6.9,-,N/A,,Scattered Clouds,200,2013-08-18 17:53:00
2:53 PM,79.0,57.9,48,30.20,10.0,SSW,11.5,-,N/A,,Clear,200,2013-08-18 18:53:00
3:53 PM,75.9,60.1,58,30.18,10.0,SSW,5.8,-,N/A,,Mostly Cloudy,210,2013-08-18 19:53:00
4:53 PM,77.0,61.0,58,30.17,10.0,WSW,5.8,-,N/A,,Mostly Cloudy,240,2013-08-18 20:53:00
5:53 PM,75.9,62.1,62,30.15,10.0,SSW,4.6,-,N/A,,Clear,210,2013-08-18 21:53:00
6:53 PM,75.0,62.1,64,30.14,10.0,Calm,Calm,-,N/A,,Clear,0,2013-08-18 22:53:00
7:53 PM,72.0,63.0,73,30.14,10.0,SSW,3.5,-,N/A,,Clear,200,2013-08-18 23:53:00
8:53 PM,70.0,62.1,76,30.14,10.0,South,3.5,-,N/A,,Clear,190,2013-08-19 00:53:00
9:53 PM,69.1,62.1,78,30.13,10.0,SSW,3.5,-,N/A,,Clear,200,2013-08-19 01:53:00
10:53 PM,68.0,62.1,81,30.11,10.0,South,3.5,-,N/A,,Clear,180,2013-08-19 02:53:00
11:53 PM,66.0,62.1,87,30.10,10.0,South,3.5,-,N/A,,Clear,180,2013-08-19 03:53:00